STARLINK-1526, 46029

Orbit data source: Space-Track

STARLINK-1526, 46029 is a payload satellite owned by SpaceX/Seattle (US) in LEO that was launched on Fri, 07 Aug 2020 UTC via an FALCON 9 launch vehicle from the Air Force Eastern Test Range (AFETR). Payload-class satellites include a variety of spacecraft equipped with specific instruments for various scientific and technological missions. These include communications satellites like Starlink; space stations such as the ISS; scientific satellites like the Hubble; Earth observation satellites from companies like Planet Labs, Umbra, and HawkEye 360; GPS; miniature CubeSats for education and research; and military/defense satellites.

Loading next visibility...
Identifier
46029, 2020-055C
Orbit
LEO
Country
Flag of USUS
Related business
Manufacturer
SpaceX/Seattle
Mission
Operational Commercial Communications
Bus & Motor
STARLINK, Unknown motor
Mass
260 kg wet, ~248 kg dry
Launch date (UTC)
2020-08-07 (5 years ago)
Launch vehicle
FALCON 9
Launch site
Air Force Eastern Test Range (AFETR)
Object type
Payload
Rocket body
Debris
Shape & HBR
Box + 1 Pan, 10.1 m
Radar Cross Section
13.562 m², Large (>1 m²)

Expand to show TLE details & history
Last TLE update: 18 hours ago

TLE from 18 hours ago
0 STARLINK-1526
1 46029U 20055C   25293.71114904 -.00001401  00000-0 -75185-4 0  9999
2 46029  53.0559  35.0022 0001445  91.4587 268.6567 15.06384123287796
Epoch: 2025-10-20T17:04Z
TLE epoch observation values (Epoch: 2025-10-20T17:04:03.277Z)
Latitude
-0.00004°
Longitude
109.57897°
Altitude
548.163 km
Speed
7.589 km/s
True Right ascension
02h 20m 00s
True Declination
0° 00' 00"
Sunlit
Object was in full shadow at epoch
Visualization orbit readout
Latitude
Unknown
Longitude
Unknown
Altitude
Unknown
Speed
Unknown
Apparent Right ascension
Unknown
Apparent Declination
Unknown
Sunlit
N/A
Visualization observer readout
Local Sidereal Time
06:06:07
Azimuth
Unknown
Elevation
Unknown
Doppler factor
Unknown
Orbital elements
Apogee altitude
548.531 km
Perigee altitude
546.53 km
Semi-major axis
6,925.668 km
Eccentricity
0.00014
Inclination
53.0559°
RAAN
35.0022°
Arg. of periapsis
91.4587°
True anomaly
268.64015°
Mean anomaly
268.6567°
Eccentric anomaly
268.64842°
Mean motion
3.76574 °/min
Orbital period
95.6 mins
BSTAR
-0.000075185
Loading maneuver chart data...
Computing Atmospheric mass density...
Loading historical data...
Loading historical data...
Loading historical data...
Loading historical data...
Loading historical data...
Loading historical data...
Loading historical data...

Documentation

Showing up to 5 results
|